TimeCST,TemperatureF,Dew PointF,Humidity,Sea Level PressureIn,VisibilityMPH,Wind Direction,Wind SpeedMPH,Gust SpeedMPH,PrecipitationIn,Events,Conditions,WindDirDegrees,DateUTC
12:52 AM,48.0,44.1,86,29.92,7.0,East,6.9,-,N/A,,Overcast,90,2012-12-09 06:52:00
1:52 AM,48.0,45.0,89,29.92,7.0,ENE,4.6,-,N/A,,Overcast,70,2012-12-09 07:52:00
2:52 AM,48.0,45.0,89,29.89,7.0,ESE,5.8,-,N/A,,Overcast,110,2012-12-09 08:52:00
3:45 AM,48.2,44.6,87,29.86,6.0,East,6.9,-,0.00,,Overcast,100,2012-12-09 09:45:00
3:52 AM,48.0,45.0,89,29.86,6.0,ESE,8.1,-,0.00,,Overcast,110,2012-12-09 09:52:00
4:52 AM,48.9,46.0,90,29.85,6.0,SE,4.6,-,N/A,,Overcast,140,2012-12-09 10:52:00
5:52 AM,48.9,46.9,93,29.85,5.0,SE,3.5,-,0.00,,Overcast,130,2012-12-09 11:52:00
6:40 AM,48.2,48.2,100,29.85,2.0,SSE,3.5,-,0.07,Rain-Thunderstorm,Heavy Rain,150,2012-12-09 12:40:00
6:47 AM,50.0,48.2,94,29.85,3.0,Calm,Calm,-,0.08,Rain-Thunderstorm,Light Rain,0,2012-12-09 12:47:00
6:52 AM,50.0,48.0,93,29.85,4.0,Calm,Calm,-,0.08,Rain,Light Rain,0,2012-12-09 12:52:00
7:34 AM,50.0,48.2,94,29.83,2.0,SSE,3.5,-,0.00,,Overcast,150,2012-12-09 13:34:00
7:52 AM,51.1,50.0,96,29.84,2.0,South,3.5,-,0.00,,Overcast,180,2012-12-09 13:52:00
8:34 AM,53.6,51.8,94,29.83,3.0,South,8.1,-,N/A,,Overcast,180,2012-12-09 14:34:00
8:50 AM,53.6,51.8,94,29.84,4.0,South,9.2,-,N/A,,Overcast,180,2012-12-09 14:50:00
8:52 AM,54.0,52.0,93,29.84,4.0,South,10.4,-,N/A,,Overcast,180,2012-12-09 14:52:00
9:21 AM,53.6,53.6,100,29.84,2.5,South,4.6,-,N/A,,Overcast,170,2012-12-09 15:21:00
9:36 AM,53.6,53.6,100,29.84,2.5,South,4.6,-,N/A,,Overcast,170,2012-12-09 15:36:00
9:52 AM,55.0,53.1,93,29.85,3.0,South,4.6,-,N/A,,Overcast,190,2012-12-09 15:52:00
10:18 AM,55.4,53.6,94,29.85,4.0,Calm,Calm,-,N/A,,Overcast,0,2012-12-09 16:18:00
10:27 AM,55.4,53.6,94,29.85,4.0,SSW,3.5,-,N/A,,Overcast,200,2012-12-09 16:27:00
10:52 AM,55.9,54.0,93,29.84,4.0,Calm,Calm,-,N/A,,Overcast,0,2012-12-09 16:52:00
12:08 PM,55.4,53.6,94,29.82,2.5,WSW,4.6,-,0.01,Rain-Thunderstorm,Light Rain,250,2012-12-09 18:08:00
12:19 PM,55.4,55.4,100,29.78,1.2,Calm,Calm,-,0.05,Rain-Thunderstorm,Rain,0,2012-12-09 18:19:00
12:32 PM,57.2,55.4,94,29.76,2.5,SE,8.1,-,0.05,Rain-Thunderstorm,Light Rain,130,2012-12-09 18:32:00
12:40 PM,57.2,55.4,94,29.77,3.0,SSE,9.2,-,0.05,,Partly Cloudy,150,2012-12-09 18:40:00
12:52 PM,57.9,55.9,93,29.77,3.0,SSE,4.6,-,0.05,,Scattered Clouds,160,2012-12-09 18:52:00
1:28 PM,57.2,57.2,100,29.76,2.5,Calm,Calm,-,0.01,Rain-Thunderstorm,Rain,0,2012-12-09 19:28:00
1:38 PM,57.2,55.4,94,29.77,1.0,WNW,5.8,-,0.09,Rain-Thunderstorm,Heavy Thunderstorms and Rain,290,2012-12-09 19:38:00
1:52 PM,59.0,57.9,96,29.75,1.8,SE,6.9,-,0.12,Rain-Thunderstorm,Light Rain,140,2012-12-09 19:52:00
1:58 PM,59.0,57.2,94,29.75,3.0,SSE,8.1,-,0.00,Rain-Thunderstorm,Light Rain,160,2012-12-09 19:58:00
2:10 PM,59.0,57.2,94,29.75,6.0,SSW,4.6,-,0.00,,Overcast,200,2012-12-09 20:10:00
2:18 PM,59.0,57.2,94,29.75,3.0,SSW,4.6,-,0.02,Rain,Rain,200,2012-12-09 20:18:00
2:30 PM,59.0,57.2,94,29.74,2.5,Calm,Calm,-,0.05,Rain-Thunderstorm,Light Thunderstorms and Rain,0,2012-12-09 20:30:00
2:42 PM,59.0,57.2,94,29.75,1.0,Calm,Calm,-,0.11,Rain-Thunderstorm,Heavy Rain,0,2012-12-09 20:42:00
2:49 PM,59.0,57.2,94,29.75,1.5,NW,4.6,-,0.12,Rain-Thunderstorm,Light Rain,310,2012-12-09 20:49:00
2:52 PM,59.0,57.9,96,29.74,3.0,NNW,4.6,-,0.12,Rain-Thunderstorm,Light Rain,330,2012-12-09 20:52:00
2:59 PM,59.0,57.2,94,29.75,2.0,NNW,5.8,-,0.02,Rain-Thunderstorm,Rain,330,2012-12-09 20:59:00
3:02 PM,57.2,57.2,100,29.74,1.8,NNW,5.8,-,0.03,Rain-Thunderstorm,Rain,340,2012-12-09 21:02:00
3:18 PM,57.2,55.4,94,29.74,0.8,NNW,5.8,-,0.12,Rain,Heavy Rain,330,2012-12-09 21:18:00
3:26 PM,55.4,55.4,100,29.73,1.0,NNW,4.6,-,0.16,Rain,Heavy Rain,330,2012-12-09 21:26:00
3:44 PM,55.4,55.4,100,29.74,1.5,NNW,8.1,-,0.22,Rain,Rain,330,2012-12-09 21:44:00
3:52 PM,55.0,54.0,96,29.74,1.2,NNW,8.1,-,0.28,Rain-Thunderstorm,Heavy Rain,340,2012-12-09 21:52:00
4:03 PM,55.4,53.6,94,29.74,3.0,NNW,12.7,-,0.04,Rain-Thunderstorm,Rain,340,2012-12-09 22:03:00
4:14 PM,53.6,53.6,100,29.74,2.0,NNW,10.4,-,0.15,Rain-Thunderstorm,Thunderstorms and Rain,330,2012-12-09 22:14:00
4:24 PM,53.6,53.6,100,29.72,2.5,Variable,4.6,-,0.22,Rain-Thunderstorm,Light Thunderstorms and Rain,0,2012-12-09 22:24:00
4:28 PM,53.6,53.6,100,29.73,4.0,East,5.8,-,0.22,Rain-Thunderstorm,Light Rain,80,2012-12-09 22:28:00
4:52 PM,54.0,53.1,97,29.75,3.0,North,5.8,-,0.27,Rain-Thunderstorm,Rain,350,2012-12-09 22:52:00
5:08 PM,53.6,53.6,100,29.76,6.0,NW,8.1,-,0.03,Rain,Light Rain,310,2012-12-09 23:08:00
5:52 PM,53.1,51.1,93,29.78,6.0,NW,13.8,19.6,0.03,,Overcast,320,2012-12-09 23:52:00
6:42 PM,50.0,48.2,94,29.81,5.0,NW,8.1,18.4,0.02,Rain,Rain,310,2012-12-10 00:42:00
6:52 PM,50.0,48.0,93,29.81,6.0,NW,6.9,-,0.03,Rain,Light Rain,320,2012-12-10 00:52:00
7:10 PM,50.0,48.2,94,29.80,7.0,NW,9.2,-,0.00,,Overcast,320,2012-12-10 01:10:00
7:43 PM,50.0,48.2,94,29.81,8.0,NW,5.8,-,0.00,,Overcast,310,2012-12-10 01:43:00
7:52 PM,50.0,48.0,93,29.81,7.0,NW,9.2,-,0.00,,Overcast,320,2012-12-10 01:52:00
8:07 PM,50.0,46.4,87,29.81,10.0,NW,12.7,19.6,N/A,,Overcast,310,2012-12-10 02:07:00
8:19 PM,48.2,46.4,93,29.81,10.0,NNW,12.7,-,N/A,,Overcast,330,2012-12-10 02:19:00
8:52 PM,48.9,46.0,90,29.83,8.0,NW,13.8,20.7,N/A,,Overcast,320,2012-12-10 02:52:00
9:52 PM,46.9,43.0,86,29.84,9.0,NW,16.1,23.0,N/A,,Overcast,320,2012-12-10 03:52:00
10:49 PM,46.4,41.0,81,29.86,10.0,NW,13.8,20.7,N/A,,Overcast,320,2012-12-10 04:49:00
10:52 PM,46.0,41.0,83,29.86,10.0,NW,13.8,21.9,N/A,,Overcast,320,2012-12-10 04:52:00
11:52 PM,45.0,39.0,80,29.86,10.0,NNW,8.1,-,N/A,,Overcast,330,2012-12-10 05:52:00